Regional Weather Roundup
Issued by NWS Sterling, VA

Home | Current Version | Previous Version | Graphics & Text | Print | Product List | Glossary On
Versions: 1 2 3 4 5 6 7 8 9 10 11 12 13 14 15 16 17 18 19 20 21 22 23 24 25 26 27 28 29 30 31 32 33 34 35 36 37 38 39 40 41 42 43 44 45 46 47 48 49 50
000
ASUS41 KLWX 191511
RWRLWX

REGIONAL WEATHER ROUNDUP
NATIONAL WEATHER SERVICE BALTIMORE MD/WASHINGTON DC
1100 AM EDT SAT AUG 19 2017

Note: "FAIR" indicates few or no clouds below 12,000 feet
with no significant weather and/or obstructions to visibility.
 TC=TEMPERATURE CELSIUS

 * =Non NWS site. Station does not report precipitation (e.g. rain,
    snow, etc.), thunder, or fog.

DCZ001-MDZ009-015-VAZ040>042-051-053>054-191600-
WASHINGTON METRO

CITY           SKY/WX    TMP DP  RH WIND       PRES   REMARKS
WASHINGTON NAT MOSUNNY   84  69  60 N10       29.93R
DULLES         MOSUNNY   82  68  62 W10       29.93S
ANDREWS AFB    SUNNY     82  66  57 N12       29.92R
FT BELVOIR     PTSUNNY   84  66  54 N5        29.92S
QUANTICO       MOSUNNY   86  69  56 NW6       29.93R HX  90
COLLEGE PARK*  SUNNY     82  68  61 N6        29.92R
LEESBURG*      SUNNY     82  70  65 NW13      29.95R
MANASSAS*      SUNNY     84  68  58 NW12      29.94R
GAITHERSBURG*  SUNNY     80  69  69 NW9       29.95R

$$

MDZ006>007-011-014-191600-
BALTIMORE METRO

CITY           SKY/WX    TMP DP  RH WIND       PRES   REMARKS
BWI AIRPORT    PTSUNNY   83  67  58 NW6       29.91S
MD SCIENCE CTR   N/A     84  66  54 MISG      29.92S
MARTIN STATE   MOSUNNY   82  72  69 NW5       29.92S
ANNAPOLIS      PTSUNNY   83  72  69 CALM      29.91R
FORT MEADE*    SUNNY     81  70  69 NW6       29.94S

$$

MDZ012-015-019>023-191600-
MARYLAND EASTERN SHORE

CITY           SKY/WX    TMP DP  RH WIND       PRES   REMARKS
OCEAN CITY     PTSUNNY   84  75  74 N8        29.91S HX  92
SALISBURY      MOSUNNY   83  73  72 N8        29.91S
BAY BRIDGE AP* MOSUNNY   81  72  74 NW6       29.92R
CAMBRIDGE*     MOSUNNY   82  72  69 N7        29.91S

$$

MDZ017>025-191600-
SOUTHERN MARYLAND

CITY           SKY/WX    TMP DP  RH WIND       PRES   REMARKS
PATUXENT RIVER MOSUNNY   83  71  67 NW6       29.92R
ST INIGOES     MOSUNNY   83  72  69 VRB3      29.91S
LEONARDTOWN*   MOSUNNY   81  68  65 N3        29.94S

$$

MDZ003>005-191600-
NORTH CENTRAL MARYLAND

CITY           SKY/WX    TMP DP  RH WIND       PRES   REMARKS
FREDERICK*     SUNNY     82  66  57 W8        29.96R
HAGERSTOWN APT SUNNY     81  66  60 W7        29.94S
WESTMINSTER*   SUNNY     81  66  61 W10G16    29.95R

$$

MDZ501>502-191600-
WESTERN MARYLAND

CITY           SKY/WX    TMP DP  RH WIND       PRES   REMARKS
OAKLAND*       CLOUDY    68  59  73 W12G18    30.03R
CUMBERLAND*    SUNNY     81  68  65 CALM      29.99S

$$

VAZ025>031-191600-
SHENANDOAH VALLEY

CITY           SKY/WX    TMP DP  RH WIND       PRES   REMARKS
WINCHESTER*    MOSUNNY   79  64  61 W9        29.96R
FRONT ROYAL*   SUNNY     81  64  57 W3        29.95S
LURAY*         SUNNY     81  64  57 W5        29.97F
NEW MARKET*    SUNNY     80  63  55 CALM      29.96F
STAUNTON*      SUNNY     78  63  58 W3        30.02R
WAYNESBORO*    MOSUNNY   78  63  60 W7        30.01R

$$

WVZ021-048>050-054>055-191600-
EASTERN WEST VIRGINIA PANHANDLE

CITY           SKY/WX    TMP DP  RH WIND       PRES   REMARKS
MARTINSBURG    MOSUNNY   80  66  62 W8        29.94R
PETERSBURG*    MOSUNNY   82  67  61 CALM      29.98S

$$

VAZ036>039-050-191600-
CENTRAL FOOTHILLS

CITY           SKY/WX    TMP DP  RH WIND       PRES   REMARKS
CHARLOTTESVILL SUNNY     85  65  51 N6        29.96R
CULPEPER*      PTSUNNY   83  67  58 W5        29.96R
ORANGE*        SUNNY     82  64  54 CALM      29.95R
GORDONSVILLE*  SUNNY     82  65  55 CALM      29.95R
WARRENTON*     MOSUNNY   83  64  52 NW5       29.94R

$$

VAZ055>057-191600-
NORTH AND CENTRAL PIEDMONT

CITY           SKY/WX    TMP DP  RH WIND       PRES   REMARKS
FREDERICKSBRG* MOSUNNY   84  66  54 N6        29.93R
STAFFORD*      MOSUNNY   83  68  60 NW9       29.98R

$$

NCZ024-NYZ072-PAZ021-071-VAZ022-071-191600-
OTHER REGIONAL OBSERVATIONS

CITY           SKY/WX    TMP DP  RH WIND       PRES   REMARKS
NEW YORK CITY  SUNNY     82  65  56 N6        29.89S
PHILADELPHIA   MOSUNNY   84  64  50 NW13      29.89S
PITTSBURGH     PTSUNNY   76  67  73 W10G17    29.98R
ROANOKE        MOSUNNY   81  63  54 W6        30.03R
RICHMOND       PTSUNNY   84  69  60 N9        29.94R
RALEIGH        MOSUNNY   85  66  53 NE8       29.98R

$$

ANZ530>537-191600-
MARINE OBSERVATIONS

STATION/POSITION TIME  TEMP    WIND        PRES
                       AIR SEA DIR/SP/G
                 (UTC) (F)     (DEG/KT/KT) (MB)
THOMAS PT LIGHT  1500   78 80   20/  2/  3   N/A
BALT KEY BRIDGE  1442   81     300/  4/  5 1012.8R
COVE POINT       1442   79     360/  7/ 10 1013.7R
LEWISETTA        1442   81 81  360/  5/  7 1013.2R
SOLOMONS ISLAND  1442   80 81  340/  5/  6   N/A
PINEY POINT      1442           20/  4/  5   N/A

$$




USA.gov is the U.S. government's official web portal to all federal, state and local government web resources and services.